BAW6DE EGKK-LFPG

Flight info

Callsign BAW6DE
Flight time 0h 43m
Altitude 25000
Route SFD M605 HARDY UM605 BIBAX
Aircraft A320/M-SDE3FGHIRWY/LB1

Departure

Time 2026-05-03 22:07
Airport London Gatwick Airport (EGKK)

Arrival

Time 2026-05-03 22:50
Airport Charles de Gaulle International Airport (LFPG)
Time Latitude Longitude Altitude Speed Heading
2026-05-03 21:31 51.15746 -0.16862 205 ft 0 kts 31°
2026-05-03 21:46 51.15732 -0.16875 216 ft 3 kts 26°
2026-05-03 21:47 51.15707 -0.16890 213 ft 3 kts 12°
2026-05-03 21:47 51.15682 -0.16893 211 ft 3 kts 338°
2026-05-03 21:47 51.15668 -0.16872 215 ft 2 kts 256°
2026-05-03 21:47 51.15674 -0.16832 210 ft 3 kts 258°
2026-05-03 21:48 51.15680 -0.16790 214 ft 4 kts 258°
2026-05-03 21:48 51.15681 -0.16779 217 ft 0 kts 257°
2026-05-03 21:55 51.15678 -0.16800 215 ft 7 kts 257°
2026-05-03 21:55 51.15666 -0.16891 209 ft 10 kts 257°
2026-05-03 21:55 51.15649 -0.17016 214 ft 13 kts 257°
2026-05-03 21:55 51.15626 -0.17175 206 ft 16 kts 257°
2026-05-03 21:56 51.15598 -0.17357 208 ft 12 kts 256°
2026-05-03 21:56 51.15533 -0.17435 208 ft 14 kts 184°
2026-05-03 21:56 51.15438 -0.17404 210 ft 15 kts 167°
2026-05-03 21:56 51.15321 -0.17363 205 ft 18 kts 168°
2026-05-03 21:57 51.15222 -0.17296 207 ft 16 kts 146°
2026-05-03 21:57 51.15183 -0.17187 206 ft 9 kts 80°
2026-05-03 21:57 51.15199 -0.17072 208 ft 13 kts 76°
2026-05-03 21:57 51.15218 -0.16940 213 ft 0 kts 78°
2026-05-03 21:58 51.15219 -0.16935 212 ft 0 kts 78°
2026-05-03 22:00 51.15220 -0.16927 210 ft 0 kts 78°
2026-05-03 22:03 51.15223 -0.16903 210 ft 6 kts 78°
2026-05-03 22:04 51.15224 -0.16864 209 ft 2 kts 97°
2026-05-03 22:04 51.15173 -0.16800 211 ft 13 kts 166°
2026-05-03 22:04 51.15116 -0.16859 211 ft 0 kts 253°
2026-05-03 22:06 51.15099 -0.16958 212 ft 34 kts 257°
2026-05-03 22:06 51.14995 -0.17720 213 ft 103 kts 257°
2026-05-03 22:06 51.14798 -0.19131 223 ft 154 kts 258°
2026-05-03 22:07 51.14586 -0.20805 835 ft 152 kts 258°
2026-05-03 22:07 51.14345 -0.22446 1510 ft 154 kts 257°
2026-05-03 22:07 51.14097 -0.24216 1857 ft 175 kts 257°
2026-05-03 22:07 51.13818 -0.26234 2188 ft 198 kts 257°
2026-05-03 22:08 51.13504 -0.28495 2561 ft 220 kts 257°
2026-05-03 22:08 51.13167 -0.30926 3346 ft 226 kts 257°
2026-05-03 22:08 51.12822 -0.33412 3855 ft 232 kts 257°
2026-05-03 22:08 51.12473 -0.35917 3981 ft 231 kts 256°
2026-05-03 22:09 51.12124 -0.38410 4000 ft 231 kts 256°
2026-05-03 22:09 51.11713 -0.40885 4249 ft 233 kts 243°
2026-05-03 22:09 51.10637 -0.42741 5180 ft 232 kts 206°
2026-05-03 22:10 51.07454 -0.42632 7058 ft 236 kts 166°
2026-05-03 22:10 51.05936 -0.41514 7948 ft 243 kts 147°
2026-05-03 22:10 51.04647 -0.39573 8410 ft 269 kts 132°
2026-05-03 22:10 51.03395 -0.37251 9106 ft 281 kts 133°
2026-05-03 22:11 51.02106 -0.34877 9956 ft 286 kts 133°
2026-05-03 22:11 51.00796 -0.32474 10773 ft 289 kts 133°
2026-05-03 22:11 50.99469 -0.30053 11548 ft 294 kts 134°
2026-05-03 22:11 50.98124 -0.27606 11849 ft 295 kts 134°
2026-05-03 22:12 50.96772 -0.25149 12088 ft 297 kts 134°
2026-05-03 22:12 50.95409 -0.22678 12959 ft 298 kts 134°
2026-05-03 22:12 50.94040 -0.20198 13789 ft 301 kts 134°
2026-05-03 22:12 50.92655 -0.17687 14514 ft 304 kts 134°
2026-05-03 22:13 50.91258 -0.15154 15216 ft 307 kts 134°
2026-05-03 22:13 50.89802 -0.12525 15439 ft 328 kts 134°
2026-05-03 22:13 50.88255 -0.09738 15753 ft 344 kts 134°
2026-05-03 22:13 50.86661 -0.06865 16349 ft 349 kts 134°
2026-05-03 22:14 50.85047 -0.03960 17004 ft 353 kts 134°
2026-05-03 22:14 50.83416 -0.01022 17674 ft 357 kts 134°
2026-05-03 22:14 50.81767 0.01951 18323 ft 361 kts 135°
2026-05-03 22:14 50.80097 0.04951 18916 ft 365 kts 135°
2026-05-03 22:15 50.78412 0.07975 19543 ft 368 kts 135°
2026-05-03 22:15 50.76712 0.11020 20192 ft 370 kts 136°
2026-05-03 22:15 50.74836 0.13792 20813 ft 370 kts 144°
2026-05-03 22:15 50.72838 0.16365 21419 ft 372 kts 145°
2026-05-03 22:16 50.70819 0.18941 22028 ft 375 kts 145°
2026-05-03 22:16 50.68780 0.21534 22645 ft 377 kts 145°
2026-05-03 22:16 50.66732 0.24141 23260 ft 380 kts 145°
2026-05-03 22:16 50.64670 0.26770 23807 ft 383 kts 145°
2026-05-03 22:17 50.62589 0.29422 24308 ft 385 kts 146°
2026-05-03 22:17 50.60499 0.32081 24769 ft 388 kts 146°
2026-05-03 22:17 50.58396 0.34760 24909 ft 388 kts 146°
2026-05-03 22:17 50.56269 0.37471 24944 ft 388 kts 146°
2026-05-03 22:18 50.54173 0.40142 24946 ft 388 kts 146°
2026-05-03 22:18 50.52075 0.42808 24949 ft 388 kts 146°
2026-05-03 22:18 50.49975 0.45468 24946 ft 388 kts 146°
2026-05-03 22:18 50.47877 0.48125 24947 ft 388 kts 146°
2026-05-03 22:19 50.45777 0.50786 24941 ft 385 kts 146°
2026-05-03 22:19 50.43727 0.53386 24951 ft 378 kts 146°
2026-05-03 22:19 50.41623 0.56029 24948 ft 396 kts 146°
2026-05-03 22:19 50.39427 0.58771 24948 ft 411 kts 146°
2026-05-03 22:20 50.37159 0.61604 24945 ft 424 kts 146°
2026-05-03 22:20 50.34824 0.64531 24946 ft 432 kts 146°
2026-05-03 22:20 50.32470 0.67491 24947 ft 435 kts 146°
2026-05-03 22:20 50.30111 0.70460 24947 ft 436 kts 146°
2026-05-03 22:21 50.27748 0.73433 24948 ft 436 kts 146°
2026-05-03 22:21 50.25386 0.76397 24951 ft 436 kts 146°
2026-05-03 22:21 50.23017 0.79360 24949 ft 436 kts 146°
2026-05-03 22:21 50.20652 0.82309 24949 ft 436 kts 146°
2026-05-03 22:22 50.18279 0.85261 24948 ft 436 kts 146°
2026-05-03 22:22 50.15984 0.88117 24946 ft 436 kts 146°
2026-05-03 22:22 50.13616 0.91064 24942 ft 435 kts 146°
2026-05-03 22:22 50.11247 0.94001 24939 ft 431 kts 146°
2026-05-03 22:23 50.08942 0.96859 24537 ft 417 kts 146°
2026-05-03 22:23 50.06686 0.99622 23873 ft 405 kts 149°
2026-05-03 22:23 50.04316 1.01873 23722 ft 399 kts 158°
2026-05-03 22:23 50.01822 1.03759 23368 ft 398 kts 158°
2026-05-03 22:24 49.99329 1.05636 22980 ft 397 kts 158°
2026-05-03 22:24 49.96849 1.07504 22622 ft 395 kts 158°
2026-05-03 22:24 49.94376 1.09366 22263 ft 394 kts 158°
2026-05-03 22:24 49.91919 1.11220 21913 ft 392 kts 158°
2026-05-03 22:25 49.89470 1.13070 21550 ft 390 kts 158°
2026-05-03 22:25 49.87030 1.14906 21199 ft 388 kts 158°
2026-05-03 22:25 49.84611 1.16713 20846 ft 386 kts 158°
2026-05-03 22:25 49.82194 1.18515 20498 ft 385 kts 158°
2026-05-03 22:26 49.79787 1.20309 20144 ft 383 kts 158°
2026-05-03 22:26 49.77390 1.22095 19797 ft 381 kts 158°
2026-05-03 22:26 49.75009 1.23872 19451 ft 379 kts 158°
2026-05-03 22:26 49.72609 1.25664 19109 ft 377 kts 158°
2026-05-03 22:27 49.70247 1.27418 18768 ft 376 kts 158°
2026-05-03 22:27 49.67897 1.29157 18429 ft 374 kts 158°
2026-05-03 22:27 49.65554 1.30891 18072 ft 372 kts 157°
2026-05-03 22:27 49.63230 1.32611 17721 ft 370 kts 157°
2026-05-03 22:28 49.60967 1.34499 17348 ft 370 kts 148°
2026-05-03 22:28 49.58969 1.36982 16776 ft 368 kts 143°
2026-05-03 22:28 49.57019 1.39513 16222 ft 365 kts 143°
2026-05-03 22:28 49.55087 1.42051 15763 ft 364 kts 143°
2026-05-03 22:29 49.53166 1.44581 15314 ft 362 kts 143°
2026-05-03 22:29 49.51265 1.47083 14870 ft 360 kts 143°
2026-05-03 22:29 49.49362 1.49579 14432 ft 357 kts 143°
2026-05-03 22:29 49.47478 1.52035 14000 ft 355 kts 143°
2026-05-03 22:30 49.45596 1.54480 13543 ft 352 kts 143°
2026-05-03 22:30 49.43731 1.56898 13067 ft 350 kts 143°
2026-05-03 22:30 49.41875 1.59301 12593 ft 347 kts 143°
2026-05-03 22:30 49.40031 1.61685 12127 ft 345 kts 143°
2026-05-03 22:31 49.38205 1.64050 11663 ft 343 kts 143°
2026-05-03 22:31 49.36385 1.66405 11220 ft 341 kts 143°
2026-05-03 22:31 49.34582 1.68741 10965 ft 339 kts 143°
2026-05-03 22:31 49.32774 1.71076 10959 ft 340 kts 143°
2026-05-03 22:32 49.31095 1.73648 10961 ft 344 kts 132°
2026-05-03 22:32 49.29822 1.76775 10966 ft 349 kts 118°
2026-05-03 22:32 49.29049 1.80328 10969 ft 355 kts 105°
2026-05-03 22:32 49.28838 1.82809 10969 ft 358 kts 97°
2026-05-03 22:33 49.28671 1.86624 10968 ft 358 kts 97°
2026-05-03 22:33 49.28502 1.90480 10970 ft 358 kts 97°
2026-05-03 22:33 49.28331 1.94289 10970 ft 358 kts 97°
2026-05-03 22:33 49.28159 1.98060 10965 ft 347 kts 97°
2026-05-03 22:34 49.27997 2.01637 10966 ft 328 kts 98°
2026-05-03 22:34 49.27841 2.05029 10971 ft 311 kts 98°
2026-05-03 22:34 49.27687 2.08269 10974 ft 302 kts 98°
2026-05-03 22:34 49.27528 2.11471 10973 ft 301 kts 98°
2026-05-03 22:35 49.27376 2.14495 10971 ft 301 kts 98°
2026-05-03 22:35 49.27215 2.17696 10974 ft 301 kts 98°
2026-05-03 22:35 49.27056 2.20883 10972 ft 301 kts 98°
2026-05-03 22:35 49.26897 2.24081 10963 ft 301 kts 98°
2026-05-03 22:36 49.26737 2.27273 10960 ft 301 kts 99°
2026-05-03 22:36 49.26574 2.30452 10969 ft 300 kts 99°
2026-05-03 22:36 49.26413 2.33624 10659 ft 298 kts 98°
2026-05-03 22:36 49.26257 2.36780 10310 ft 297 kts 98°
2026-05-03 22:37 49.26102 2.39929 9978 ft 295 kts 98°
2026-05-03 22:37 49.25947 2.43057 9625 ft 294 kts 98°
2026-05-03 22:37 49.25791 2.46174 9278 ft 293 kts 98°
2026-05-03 22:37 49.25635 2.49271 8920 ft 291 kts 98°
2026-05-03 22:38 49.25426 2.52342 8573 ft 287 kts 104°
2026-05-03 22:38 49.25071 2.55338 8240 ft 286 kts 104°
2026-05-03 22:38 49.24721 2.58319 7997 ft 282 kts 104°
2026-05-03 22:38 49.24371 2.61284 7965 ft 284 kts 104°
2026-05-03 22:39 49.24015 2.64267 7967 ft 285 kts 105°
2026-05-03 22:39 49.23661 2.67254 7966 ft 285 kts 104°
2026-05-03 22:39 49.23312 2.70224 7697 ft 283 kts 104°
2026-05-03 22:39 49.22965 2.73181 7356 ft 282 kts 104°
2026-05-03 22:40 49.22619 2.76124 7030 ft 281 kts 104°
2026-05-03 22:40 49.22275 2.79055 6708 ft 279 kts 105°
2026-05-03 22:40 49.21932 2.81971 6385 ft 278 kts 104°
2026-05-03 22:40 49.21590 2.84877 6038 ft 277 kts 104°
2026-05-03 22:41 49.21249 2.87768 5708 ft 276 kts 104°
2026-05-03 22:41 49.20910 2.90648 5378 ft 274 kts 104°
2026-05-03 22:41 49.20341 2.93371 5066 ft 265 kts 126°
2026-05-03 22:41 49.19070 2.95289 5000 ft 257 kts 151°
2026-05-03 22:42 49.17491 2.96654 5001 ft 256 kts 155°
2026-05-03 22:42 49.15959 2.97892 4999 ft 242 kts 155°
2026-05-03 22:42 49.14513 2.99050 5002 ft 229 kts 156°
2026-05-03 22:42 49.13111 3.00166 5003 ft 227 kts 156°
2026-05-03 22:43 49.11714 3.01276 5002 ft 226 kts 156°
2026-05-03 22:43 49.10300 3.02302 5003 ft 223 kts 167°
2026-05-03 22:43 49.08778 3.02408 5007 ft 219 kts 190°
2026-05-03 22:43 49.07369 3.01757 5008 ft 209 kts 206°
2026-05-03 22:44 49.06174 3.00503 5006 ft 209 kts 222°
2026-05-03 22:44 49.05280 2.98748 5008 ft 212 kts 239°
2026-05-03 22:44 49.04776 2.96631 5003 ft 215 kts 256°
2026-05-03 22:44 49.04631 2.94346 5011 ft 218 kts 261°
2026-05-03 22:45 49.04519 2.92043 4908 ft 218 kts 261°
2026-05-03 22:45 49.04406 2.89747 4665 ft 217 kts 261°
2026-05-03 22:45 49.04289 2.87440 4382 ft 219 kts 262°
2026-05-03 22:45 49.04173 2.85127 4086 ft 218 kts 262°
2026-05-03 22:46 49.04056 2.82834 3794 ft 217 kts 262°
2026-05-03 22:46 49.03940 2.80542 3509 ft 216 kts 262°
2026-05-03 22:46 49.03823 2.78268 3227 ft 215 kts 262°
2026-05-03 22:46 49.03707 2.76001 2940 ft 213 kts 262°
2026-05-03 22:47 49.03591 2.73755 2659 ft 212 kts 262°
2026-05-03 22:47 49.03478 2.71559 2375 ft 202 kts 263°
2026-05-03 22:47 49.03371 2.69495 2111 ft 189 kts 263°
2026-05-03 22:47 49.03269 2.67543 1861 ft 182 kts 263°
2026-05-03 22:48 49.03171 2.65667 1661 ft 171 kts 263°
2026-05-03 22:48 49.03085 2.64029 1431 ft 159 kts 263°
2026-05-03 22:48 49.03004 2.62472 1229 ft 139 kts 263°
2026-05-03 22:48 49.02927 2.61036 1045 ft 134 kts 263°
2026-05-03 22:49 49.02847 2.59629 839 ft 133 kts 263°
2026-05-03 22:49 49.02775 2.58224 667 ft 133 kts 263°
2026-05-03 22:49 49.02705 2.56827 494 ft 132 kts 262°
2026-05-03 22:49 49.02621 2.55430 365 ft 130 kts 262°
2026-05-03 22:50 49.02560 2.54254 354 ft 90 kts 266°
2026-05-03 22:50 49.02520 2.53640 363 ft 41 kts 264°
2026-05-03 22:50 49.02428 2.53295 355 ft 7 kts 236°
2026-05-03 22:50 49.02406 2.53247 359 ft 10 kts 236°
2026-05-03 22:51 49.02346 2.53120 355 ft 17 kts 234°
2026-05-03 22:51 49.02271 2.53023 360 ft 14 kts 201°
2026-05-03 22:51 49.02161 2.53006 358 ft 17 kts 177°
2026-05-03 22:51 49.02031 2.53017 355 ft 21 kts 174°
2026-05-03 22:52 49.01883 2.53045 358 ft 19 kts 165°
2026-05-03 22:52 49.01850 2.53224 355 ft 20 kts 85°
2026-05-03 22:52 49.01864 2.53450 359 ft 23 kts 85°
2026-05-03 22:52 49.01878 2.53699 355 ft 25 kts 86°
2026-05-03 22:53 49.01891 2.53946 359 ft 12 kts 82°
2026-05-03 22:53 49.01893 2.53977 355 ft 0 kts 82°
2026-05-03 22:53 49.01895 2.53988 360 ft 4 kts 82°
2026-05-03 22:53 49.01896 2.54053 355 ft 9 kts 96°
2026-05-03 22:54 49.01832 2.54173 355 ft 17 kts 130°
2026-05-03 22:54 49.01822 2.54360 355 ft 20 kts 85°
2026-05-03 22:54 49.01833 2.54580 355 ft 22 kts 86°
2026-05-03 22:54 49.01847 2.54819 359 ft 14 kts 85°
2026-05-03 22:55 49.01848 2.54843 355 ft 5 kts 86°
2026-05-03 22:55 49.01855 2.54979 355 ft 19 kts 81°
2026-05-03 22:55 49.01820 2.55122 357 ft 15 kts 157°
2026-05-03 22:55 49.01700 2.55146 355 ft 19 kts 174°
2026-05-03 22:56 49.01562 2.55166 358 ft 20 kts 175°
2026-05-03 22:56 49.01440 2.55183 358 ft 13 kts 173°
2026-05-03 22:56 49.01387 2.55201 360 ft 0 kts 162°
2026-05-03 22:56 49.01342 2.55215 355 ft 15 kts 176°
2026-05-03 22:57 49.01227 2.55169 358 ft 19 kts 199°
2026-05-03 22:57 49.01093 2.55193 361 ft 21 kts 161°
2026-05-03 22:57 49.00941 2.55255 359 ft 24 kts 163°
2026-05-03 22:57 49.00774 2.55329 360 ft 27 kts 165°
2026-05-03 22:58 49.00586 2.55409 358 ft 29 kts 164°
2026-05-03 22:58 49.00414 2.55485 359 ft 17 kts 163°
2026-05-03 22:58 49.00286 2.55544 359 ft 21 kts 164°
2026-05-03 22:58 49.00143 2.55605 359 ft 12 kts 165°
2026-05-03 22:59 49.00102 2.55622 360 ft 2 kts 163°
2026-05-03 22:59 49.00074 2.55716 357 ft 14 kts 92°
2026-05-03 22:59 49.00076 2.55896 356 ft 21 kts 88°
2026-05-03 22:59 49.00088 2.56131 360 ft 24 kts 86°
2026-05-03 23:00 49.00102 2.56397 360 ft 27 kts 86°
2026-05-03 23:00 49.00118 2.56697 358 ft 30 kts 85°
2026-05-03 23:00 49.00128 2.56946 353 ft 11 kts 89°
2026-05-03 23:00 49.00129 2.56953 353 ft 0 kts 87°
2026-05-03 23:01 49.00138 2.56955 353 ft 2 kts
2026-05-03 23:01 49.00153 2.56947 361 ft 4 kts 341°
2026-05-03 23:01 49.00173 2.56934 357 ft 3 kts 335°
2026-05-03 23:01 49.00185 2.56922 357 ft 3 kts 323°
2026-05-03 23:02 49.00201 2.56902 353 ft 1 kts 326°
2026-05-03 23:02 49.00205 2.56898 356 ft 0 kts 326°